owner,sensor,date,latitude,longitude,vertical_datum,direction_of_sea_water_velocity,sea_water_speed,upward_sea_water_velocity,qcFlag 
ADCP,ioos:station:wmo:42373:1,2008-03-01T00:08:00Z,27.3540,-94.6250,79.0,239.0,23.5,-9999.0,'11111222,11111222,99999999' 
ADCP,ioos:station:wmo:42373:1,2008-03-01T00:28:00Z,27.3540,-94.6250,79.0,241.0,30.3,-9999.0,'11111222,11111222,99999999' 
ADCP,ioos:station:wmo:42373:1,2008-03-01T00:48:00Z,27.3540,-94.6250,79.0,243.0,30.5,-9999.0,'11111222,11111222,99999999' 
ADCP,ioos:station:wmo:42373:1,2008-03-01T01:08:00Z,27.3540,-94.6250,79.0,242.0,31.7,-9999.0,'11111222,11111222,99999999' 
ADCP,ioos:station:wmo:42373:1,2008-03-01T01:28:00Z,27.3540,-94.6250,79.0,245.0,29.8,-9999.0,'11111222,11111222,99999999' 
ADCP,ioos:station:wmo:42373:1,2008-03-01T01:48:00Z,27.3540,-94.6250,79.0,245.0,31.0,-9999.0,'11111222,11111222,99999999' 
ADCP,ioos:station:wmo:42373:1,2008-03-01T02:08:00Z,27.3540,-94.6250,79.0,247.0,31.5,-9999.0,'11111222,11111222,99999999' 
ADCP,ioos:station:wmo:42373:1,2008-03-01T02:28:00Z,27.3540,-94.6250,79.0,248.0,30.8,-9999.0,'11111222,11111222,99999999' 
ADCP,ioos:station:wmo:42373:1,2008-03-01T02:48:00Z,27.3540,-94.6250,79.0,251.0,29.4,-9999.0,'11111222,11111222,99999999' 
ADCP,ioos:station:wmo:42373:1,2008-03-01T03:08:00Z,27.3540,-94.6250,79.0,251.0,30.2,-9999.0,'11111222,11111222,99999999' 
ADCP,ioos:station:wmo:42373:1,2008-03-01T03:28:00Z,27.3540,-94.6250,79.0,251.0,29.5,-9999.0,'11111222,11111222,99999999' 
ADCP,ioos:station:wmo:42373:1,2008-03-01T03:48:00Z,27.3540,-94.6250,79.0,253.0,29.7,-9999.0,'11111222,11111222,99999999' 
ADCP,ioos:station:wmo:42373:1,2008-03-01T04:08:00Z,27.3540,-94.6250,79.0,253.0,28.5,-9999.0,'11111222,11111222,99999999' 
ADCP,ioos:station:wmo:42373:1,2008-03-01T04:28:00Z,27.3540,-94.6250,79.0,253.0,26.9,-9999.0,'11111222,11111222,99999999' 
ADCP,ioos:station:wmo:42373:1,2008-03-01T04:48:00Z,27.3540,-94.6250,79.0,257.0,27.9,-9999.0,'11111222,11111222,99999999' 
ADCP,ioos:station:wmo:42373:1,2008-03-01T05:08:00Z,27.3540,-94.6250,79.0,258.0,29.3,-9999.0,'11111222,11111222,99999999' 
ADCP,ioos:station:wmo:42373:1,2008-03-01T05:28:00Z,27.3540,-94.6250,79.0,254.0,26.1,-9999.0,'11111222,11111222,99999999' 
ADCP,ioos:station:wmo:42373:1,2008-03-01T05:48:00Z,27.3540,-94.6250,79.0,257.0,24.4,-9999.0,'11111222,11111222,99999999' 
ADCP,ioos:station:wmo:42373:1,2008-03-01T06:08:00Z,27.3540,-94.6250,79.0,261.0,24.7,-9999.0,'11111222,11111222,99999999' 
ADCP,ioos:station:wmo:42373:1,2008-03-01T06:28:00Z,27.3540,-94.6250,79.0,266.0,25.0,-9999.0,'11111222,11111222,99999999' 
ADCP,ioos:station:wmo:42373:1,2008-03-01T06:48:00Z,27.3540,-94.6250,79.0,264.0,21.9,-9999.0,'11111222,11111222,99999999' 
ADCP,ioos:station:wmo:42373:1,2008-03-01T07:08:00Z,27.3540,-94.6250,79.0,265.0,21.6,-9999.0,'11111222,11111222,99999999' 
ADCP,ioos:station:wmo:42373:1,2008-03-01T07:28:00Z,27.3540,-94.6250,79.0,265.0,21.0,-9999.0,'11111222,11111222,99999999' 
ADCP,ioos:station:wmo:42373:1,2008-03-01T07:48:00Z,27.3540,-94.6250,79.0,263.0,19.5,-9999.0,'11111222,11111222,99999999' 
ADCP,ioos:station:wmo:42373:1,2008-03-01T08:08:00Z,27.3540,-94.6250,79.0,261.0,20.2,-9999.0,'11111222,11111222,99999999' 
ADCP,ioos:station:wmo:42373:1,2008-03-01T08:28:00Z,27.3540,-94.6250,79.0,257.0,18.3,-9999.0,'11111222,11111222,99999999' 
ADCP,ioos:station:wmo:42373:1,2008-03-01T08:48:00Z,27.3540,-94.6250,79.0,255.0,15.6,-9999.0,'11111222,11111222,99999999' 
ADCP,ioos:station:wmo:42373:1,2008-03-01T09:08:00Z,27.3540,-94.6250,79.0,255.0,18.0,-9999.0,'11111222,11111222,99999999' 
ADCP,ioos:station:wmo:42373:1,2008-03-01T09:28:00Z,27.3540,-94.6250,79.0,252.0,16.5,-9999.0,'11111222,11111222,99999999' 
ADCP,ioos:station:wmo:42373:1,2008-03-01T09:48:00Z,27.3540,-94.6250,79.0,257.0,16.7,-9999.0,'11111222,11111222,99999999' 
ADCP,ioos:station:wmo:42373:1,2008-03-01T10:08:00Z,27.3540,-94.6250,79.0,258.0,16.6,-9999.0,'11111222,11111222,99999999' 
ADCP,ioos:station:wmo:42373:1,2008-03-01T10:28:00Z,27.3540,-94.6250,79.0,262.0,18.0,-9999.0,'11111222,11111222,99999999' 
ADCP,ioos:station:wmo:42373:1,2008-03-01T10:48:00Z,27.3540,-94.6250,79.0,261.0,17.9,-9999.0,'11111222,11111222,99999999' 
ADCP,ioos:station:wmo:42373:1,2008-03-01T11:08:00Z,27.3540,-94.6250,79.0,253.0,17.1,-9999.0,'11111222,11111222,99999999' 
ADCP,ioos:station:wmo:42373:1,2008-03-01T11:28:00Z,27.3540,-94.6250,79.0,252.0,17.6,-9999.0,'11111222,11111222,99999999' 
ADCP,ioos:station:wmo:42373:1,2008-03-01T11:48:00Z,27.3540,-94.6250,79.0,245.0,14.9,-9999.0,'11111222,11111222,99999999' 
ADCP,ioos:station:wmo:42373:1,2008-03-01T12:08:00Z,27.3540,-94.6250,79.0,250.0,13.2,-9999.0,'11111222,11111222,99999999' 
ADCP,ioos:station:wmo:42373:1,2008-03-01T12:28:00Z,27.3540,-94.6250,79.0,253.0,13.1,-9999.0,'11111222,11111222,99999999' 
ADCP,ioos:station:wmo:42373:1,2008-03-01T12:48:00Z,27.3540,-94.6250,79.0,243.0,7.4,-9999.0,'11133222,11111222,99999999' 
ADCP,ioos:station:wmo:42373:1,2008-03-01T13:08:00Z,27.3540,-94.6250,79.0,229.0,11.1,-9999.0,'11111222,11111222,99999999' 
ADCP,ioos:station:wmo:42373:1,2008-03-01T13:28:00Z,27.3540,-94.6250,79.0,205.0,4.0,-9999.0,'11133222,11111222,99999999' 
ADCP,ioos:station:wmo:42373:1,2008-03-01T13:48:00Z,27.3540,-94.6250,79.0,244.0,2.8,-9999.0,'11133222,11111222,99999999' 
ADCP,ioos:station:wmo:42373:1,2008-03-01T14:08:00Z,27.3540,-94.6250,79.0,212.0,6.5,-9999.0,'11133222,11111222,99999999' 
ADCP,ioos:station:wmo:42373:1,2008-03-01T14:28:00Z,27.3540,-94.6250,79.0,248.0,19.7,-9999.0,'11111222,11111222,99999999' 
ADCP,ioos:station:wmo:42373:1,2008-03-01T14:48:00Z,27.3540,-94.6250,79.0,252.0,8.2,-9999.0,'11133222,11111222,99999999' 
ADCP,ioos:station:wmo:42373:1,2008-03-01T15:08:00Z,27.3540,-94.6250,79.0,238.0,5.8,-9999.0,'11133222,11111222,99999999' 
ADCP,ioos:station:wmo:42373:1,2008-03-01T15:28:00Z,27.3540,-94.6250,79.0,229.0,8.5,-9999.0,'11133222,11111222,99999999' 
ADCP,ioos:station:wmo:42373:1,2008-03-01T15:48:00Z,27.3540,-94.6250,79.0,238.0,8.5,-9999.0,'11133222,11111222,99999999' 
ADCP,ioos:station:wmo:42373:1,2008-03-01T16:08:00Z,27.3540,-94.6250,79.0,100.0,8.9,-9999.0,'11133222,11111222,99999999' 
ADCP,ioos:station:wmo:42373:1,2008-03-01T16:28:00Z,27.3540,-94.6250,79.0,200.0,8.6,-9999.0,'11133222,11111222,99999999' 
ADCP,ioos:station:wmo:42373:1,2008-03-01T16:48:00Z,27.3540,-94.6250,79.0,208.0,4.3,-9999.0,'11133222,11111222,99999999' 
ADCP,ioos:station:wmo:42373:1,2008-03-01T17:08:00Z,27.3540,-94.6250,79.0,158.0,9.0,-9999.0,'11133222,11111222,99999999' 
ADCP,ioos:station:wmo:42373:1,2008-03-01T17:28:00Z,27.3540,-94.6250,79.0,211.0,9.3,-9999.0,'11133222,11111222,99999999' 
ADCP,ioos:station:wmo:42373:1,2008-03-01T17:48:00Z,27.3540,-94.6250,79.0,210.0,9.9,-9999.0,'11133222,11111222,99999999' 
ADCP,ioos:station:wmo:42373:1,2008-03-01T18:08:00Z,27.3540,-94.6250,79.0,201.0,10.4,-9999.0,'11111222,11111222,99999999' 
ADCP,ioos:station:wmo:42373:1,2008-03-01T18:28:00Z,27.3540,-94.6250,79.0,214.0,21.9,-9999.0,'11111222,11111222,99999999' 
ADCP,ioos:station:wmo:42373:1,2008-03-01T18:48:00Z,27.3540,-94.6250,79.0,204.0,11.5,-9999.0,'11111222,11111222,99999999' 
ADCP,ioos:station:wmo:42373:1,2008-03-01T19:08:00Z,27.3540,-94.6250,79.0,216.0,13.9,-9999.0,'11111222,11111222,99999999' 
ADCP,ioos:station:wmo:42373:1,2008-03-01T19:28:00Z,27.3540,-94.6250,79.0,216.0,14.6,-9999.0,'11111222,11111222,99999999' 
ADCP,ioos:station:wmo:42373:1,2008-03-01T19:48:00Z,27.3540,-94.6250,79.0,174.0,5.0,-9999.0,'11133222,11111222,99999999' 
ADCP,ioos:station:wmo:42373:1,2008-03-01T20:08:00Z,27.3540,-94.6250,79.0,218.0,12.9,-9999.0,'11111222,11111222,99999999' 
ADCP,ioos:station:wmo:42373:1,2008-03-01T20:28:00Z,27.3540,-94.6250,79.0,313.0,5.2,-9999.0,'11133222,11111222,99999999' 
ADCP,ioos:station:wmo:42373:1,2008-03-01T20:48:00Z,27.3540,-94.6250,79.0,242.0,5.0,-9999.0,'11133222,11111222,99999999' 
ADCP,ioos:station:wmo:42373:1,2008-03-01T21:08:00Z,27.3540,-94.6250,79.0,211.0,4.5,-9999.0,'11133222,11111222,99999999' 
ADCP,ioos:station:wmo:42373:1,2008-03-01T21:28:00Z,27.3540,-94.6250,79.0,207.0,5.7,-9999.0,'11133222,11111222,99999999' 
ADCP,ioos:station:wmo:42373:1,2008-03-01T21:48:00Z,27.3540,-94.6250,79.0,224.0,13.7,-9999.0,'11111222,11111222,99999999' 
ADCP,ioos:station:wmo:42373:1,2008-03-01T22:08:00Z,27.3540,-94.6250,79.0,236.0,7.6,-9999.0,'11133222,11111222,99999999' 
ADCP,ioos:station:wmo:42373:1,2008-03-01T22:28:00Z,27.3540,-94.6250,79.0,236.0,10.5,-9999.0,'11111222,11111222,99999999' 
ADCP,ioos:station:wmo:42373:1,2008-03-01T22:48:00Z,27.3540,-94.6250,79.0,226.0,10.2,-9999.0,'11111222,11111222,99999999' 
ADCP,ioos:station:wmo:42373:1,2008-03-01T23:08:00Z,27.3540,-94.6250,79.0,238.0,7.9,-9999.0,'11133222,11111222,99999999' 
ADCP,ioos:station:wmo:42373:1,2008-03-01T23:28:00Z,27.3540,-94.6250,79.0,213.0,9.9,-9999.0,'11133222,11111222,99999999' 
ADCP,ioos:station:wmo:42373:1,2008-03-01T23:48:00Z,27.3540,-94.6250,79.0,213.0,9.2,-9999.0,'11133222,11111222,99999999' 
ADCP,ioos:station:wmo:42373:1,2008-03-02T00:08:00Z,27.3540,-94.6250,79.0,208.0,10.8,-9999.0,'11111222,11111222,99999999' 
ADCP,ioos:station:wmo:42373:1,2008-03-02T00:28:00Z,27.3540,-94.6250,79.0,218.0,10.6,-9999.0,'11111222,11111222,99999999' 
ADCP,ioos:station:wmo:42373:1,2008-03-02T00:48:00Z,27.3540,-94.6250,79.0,220.0,11.9,-9999.0,'11111222,11111222,99999999' 
ADCP,ioos:station:wmo:42373:1,2008-03-02T01:08:00Z,27.3540,-94.6250,79.0,221.0,12.5,-9999.0,'11111222,11111222,99999999' 
ADCP,ioos:station:wmo:42373:1,2008-03-02T01:28:00Z,27.3540,-94.6250,79.0,222.0,12.0,-9999.0,'11111222,11111222,99999999' 
ADCP,ioos:station:wmo:42373:1,2008-03-02T01:48:00Z,27.3540,-94.6250,79.0,205.0,10.7,-9999.0,'11111222,11111222,99999999' 
ADCP,ioos:station:wmo:42373:1,2008-03-02T02:08:00Z,27.3540,-94.6250,79.0,217.0,13.3,-9999.0,'11111222,11111222,99999999' 
ADCP,ioos:station:wmo:42373:1,2008-03-02T02:28:00Z,27.3540,-94.6250,79.0,223.0,13.2,-9999.0,'11111222,11111222,99999999' 
ADCP,ioos:station:wmo:42373:1,2008-03-02T02:48:00Z,27.3540,-94.6250,79.0,222.0,11.6,-9999.0,'11111222,11111222,99999999' 
ADCP,ioos:station:wmo:42373:1,2008-03-02T03:08:00Z,27.3540,-94.6250,79.0,215.0,11.3,-9999.0,'11111222,11111222,99999999' 
ADCP,ioos:station:wmo:42373:1,2008-03-02T03:28:00Z,27.3540,-94.6250,79.0,222.0,11.2,-9999.0,'11111222,11111222,99999999' 
ADCP,ioos:station:wmo:42373:1,2008-03-02T03:48:00Z,27.3540,-94.6250,79.0,236.0,11.9,-9999.0,'11111222,11111222,99999999' 
ADCP,ioos:station:wmo:42373:1,2008-03-02T04:08:00Z,27.3540,-94.6250,79.0,241.0,11.5,-9999.0,'11111222,11111222,99999999' 
ADCP,ioos:station:wmo:42373:1,2008-03-02T04:28:00Z,27.3540,-94.6250,79.0,241.0,10.1,-9999.0,'11111222,11111222,99999999' 
ADCP,ioos:station:wmo:42373:1,2008-03-02T04:48:00Z,27.3540,-94.6250,79.0,236.0,9.2,-9999.0,'11133222,11111222,99999999' 
ADCP,ioos:station:wmo:42373:1,2008-03-02T05:08:00Z,27.3540,-94.6250,79.0,234.0,9.8,-9999.0,'11133222,11111222,99999999' 
ADCP,ioos:station:wmo:42373:1,2008-03-02T05:28:00Z,27.3540,-94.6250,79.0,232.0,9.0,-9999.0,'11133222,11111222,99999999' 
ADCP,ioos:station:wmo:42373:1,2008-03-02T05:48:00Z,27.3540,-94.6250,79.0,225.0,6.2,-9999.0,'11133222,11111222,99999999' 
ADCP,ioos:station:wmo:42373:1,2008-03-02T06:08:00Z,27.3540,-94.6250,79.0,231.0,7.2,-9999.0,'11133222,11111222,99999999' 
ADCP,ioos:station:wmo:42373:1,2008-03-02T06:48:00Z,27.3540,-94.6250,79.0,243.0,9.6,-9999.0,'11133222,11111222,99999999' 
ADCP,ioos:station:wmo:42373:1,2008-03-02T07:08:00Z,27.3540,-94.6250,79.0,254.0,10.0,-9999.0,'11111222,11111222,99999999' 
ADCP,ioos:station:wmo:42373:1,2008-03-02T07:28:00Z,27.3540,-94.6250,79.0,257.0,9.6,-9999.0,'11133222,11111222,99999999' 
ADCP,ioos:station:wmo:42373:1,2008-03-02T07:48:00Z,27.3540,-94.6250,79.0,249.0,9.3,-9999.0,'11133222,11111222,99999999' 
ADCP,ioos:station:wmo:42373:1,2008-03-02T08:08:00Z,27.3540,-94.6250,79.0,253.0,8.8,-9999.0,'11133222,11111222,99999999' 
ADCP,ioos:station:wmo:42373:1,2008-03-02T08:28:00Z,27.3540,-94.6250,79.0,250.0,11.7,-9999.0,'11111222,11111222,99999999' 
ADCP,ioos:station:wmo:42373:1,2008-03-02T08:48:00Z,27.3540,-94.6250,79.0,247.0,11.1,-9999.0,'11111222,11111222,99999999' 
ADCP,ioos:station:wmo:42373:1,2008-03-02T09:08:00Z,27.3540,-94.6250,79.0,257.0,10.0,-9999.0,'11111222,11111222,99999999' 
ADCP,ioos:station:wmo:42373:1,2008-03-02T09:28:00Z,27.3540,-94.6250,79.0,259.0,12.7,-9999.0,'11111222,11111222,99999999' 
ADCP,ioos:station:wmo:42373:1,2008-03-02T09:48:00Z,27.3540,-94.6250,79.0,258.0,12.6,-9999.0,'11111222,11111222,99999999' 
ADCP,ioos:station:wmo:42373:1,2008-03-02T10:08:00Z,27.3540,-94.6250,79.0,257.0,11.8,-9999.0,'11111222,11111222,99999999' 
ADCP,ioos:station:wmo:42373:1,2008-03-02T10:28:00Z,27.3540,-94.6250,79.0,252.0,10.6,-9999.0,'11111222,11111222,99999999' 
ADCP,ioos:station:wmo:42373:1,2008-03-02T10:48:00Z,27.3540,-94.6250,79.0,249.0,10.5,-9999.0,'11111222,11111222,99999999' 
ADCP,ioos:station:wmo:42373:1,2008-03-02T11:08:00Z,27.3540,-94.6250,79.0,239.0,3.5,-9999.0,'11133222,11111222,99999999' 
ADCP,ioos:station:wmo:42373:1,2008-03-02T11:28:00Z,27.3540,-94.6250,79.0,231.0,4.3,-9999.0,'11133222,11111222,99999999' 
ADCP,ioos:station:wmo:42373:1,2008-03-02T11:48:00Z,27.3540,-94.6250,79.0,234.0,2.9,-9999.0,'11133222,11111222,99999999' 
ADCP,ioos:station:wmo:42373:1,2008-03-02T12:08:00Z,27.3540,-94.6250,79.0,238.0,7.4,-9999.0,'11133222,11111222,99999999' 
ADCP,ioos:station:wmo:42373:1,2008-03-02T12:28:00Z,27.3540,-94.6250,79.0,242.0,6.0,-9999.0,'11133222,11111222,99999999' 
ADCP,ioos:station:wmo:42373:1,2008-03-02T12:48:00Z,27.3540,-94.6250,79.0,280.0,6.4,-9999.0,'11133222,11111222,99999999' 
ADCP,ioos:station:wmo:42373:1,2008-03-02T13:08:00Z,27.3540,-94.6250,79.0,273.0,6.6,-9999.0,'11133222,11111222,99999999' 
ADCP,ioos:station:wmo:42373:1,2008-03-02T13:28:00Z,27.3540,-94.6250,79.0,281.0,6.2,-9999.0,'11133222,11111222,99999999' 
ADCP,ioos:station:wmo:42373:1,2008-03-02T13:48:00Z,27.3540,-94.6250,79.0,221.0,2.0,-9999.0,'11133222,11111222,99999999' 
ADCP,ioos:station:wmo:42373:1,2008-03-02T14:08:00Z,27.3540,-94.6250,79.0,300.0,2.8,-9999.0,'11133222,11111222,99999999' 
ADCP,ioos:station:wmo:42373:1,2008-03-02T14:28:00Z,27.3540,-94.6250,79.0,277.0,2.6,-9999.0,'11133222,11111222,99999999' 
ADCP,ioos:station:wmo:42373:1,2008-03-02T14:48:00Z,27.3540,-94.6250,79.0,306.0,2.6,-9999.0,'11133222,11111222,99999999' 
ADCP,ioos:station:wmo:42373:1,2008-03-02T15:08:00Z,27.3540,-94.6250,79.0,278.0,2.7,-9999.0,'11133222,11111222,99999999' 
ADCP,ioos:station:wmo:42373:1,2008-03-02T15:28:00Z,27.3540,-94.6250,79.0,90.0,2.3,-9999.0,'11133222,11111222,99999999' 
ADCP,ioos:station:wmo:42373:1,2008-03-02T15:48:00Z,27.3540,-94.6250,79.0,101.0,3.8,-9999.0,'11133222,11111222,99999999' 
ADCP,ioos:station:wmo:42373:1,2008-03-02T16:08:00Z,27.3540,-94.6250,79.0,236.0,3.0,-9999.0,'11133222,11111222,99999999' 
ADCP,ioos:station:wmo:42373:1,2008-03-02T16:28:00Z,27.3540,-94.6250,79.0,106.0,5.1,-9999.0,'11133222,11111222,99999999' 
ADCP,ioos:station:wmo:42373:1,2008-03-02T16:48:00Z,27.3540,-94.6250,79.0,234.0,2.4,-9999.0,'11133222,11111222,99999999' 
ADCP,ioos:station:wmo:42373:1,2008-03-02T17:08:00Z,27.3540,-94.6250,79.0,187.0,2.5,-9999.0,'11133222,11111222,99999999' 
ADCP,ioos:station:wmo:42373:1,2008-03-02T17:28:00Z,27.3540,-94.6250,79.0,205.0,2.1,-9999.0,'11133222,11111222,99999999' 
ADCP,ioos:station:wmo:42373:1,2008-03-02T17:48:00Z,27.3540,-94.6250,79.0,265.0,5.8,-9999.0,'11133222,11111222,99999999' 
ADCP,ioos:station:wmo:42373:1,2008-03-02T18:08:00Z,27.3540,-94.6250,79.0,257.0,8.2,-9999.0,'11133222,11111222,99999999' 
ADCP,ioos:station:wmo:42373:1,2008-03-02T18:28:00Z,27.3540,-94.6250,79.0,248.0,9.7,-9999.0,'11133222,11111222,99999999' 
ADCP,ioos:station:wmo:42373:1,2008-03-02T18:48:00Z,27.3540,-94.6250,79.0,241.0,4.3,-9999.0,'11133222,11111222,99999999' 
ADCP,ioos:station:wmo:42373:1,2008-03-02T19:08:00Z,27.3540,-94.6250,79.0,238.0,3.6,-9999.0,'11133222,11111222,99999999' 
ADCP,ioos:station:wmo:42373:1,2008-03-02T19:28:00Z,27.3540,-94.6250,79.0,250.0,8.4,-9999.0,'11133222,11111222,99999999' 
ADCP,ioos:station:wmo:42373:1,2008-03-02T19:48:00Z,27.3540,-94.6250,79.0,282.0,3.8,-9999.0,'11133222,11111222,99999999' 
ADCP,ioos:station:wmo:42373:1,2008-03-02T20:08:00Z,27.3540,-94.6250,79.0,255.0,7.4,-9999.0,'11133222,11111222,99999999' 
ADCP,ioos:station:wmo:42373:1,2008-03-02T20:28:00Z,27.3540,-94.6250,79.0,246.0,10.4,-9999.0,'11111222,11111222,99999999' 
ADCP,ioos:station:wmo:42373:1,2008-03-02T20:48:00Z,27.3540,-94.6250,79.0,254.0,7.4,-9999.0,'11133222,11111222,99999999' 
ADCP,ioos:station:wmo:42373:1,2008-03-02T21:08:00Z,27.3540,-94.6250,79.0,257.0,11.0,-9999.0,'11111222,11111222,99999999' 
ADCP,ioos:station:wmo:42373:1,2008-03-02T21:28:00Z,27.3540,-94.6250,79.0,263.0,11.7,-9999.0,'11111222,11111222,99999999' 
ADCP,ioos:station:wmo:42373:1,2008-03-02T21:48:00Z,27.3540,-94.6250,79.0,259.0,11.4,-9999.0,'11111222,11111222,99999999' 
ADCP,ioos:station:wmo:42373:1,2008-03-02T22:08:00Z,27.3540,-94.6250,79.0,280.0,10.1,-9999.0,'11111222,11111222,99999999' 
ADCP,ioos:station:wmo:42373:1,2008-03-02T22:28:00Z,27.3540,-94.6250,79.0,284.0,9.1,-9999.0,'11133222,11111222,99999999' 
ADCP,ioos:station:wmo:42373:1,2008-03-02T22:48:00Z,27.3540,-94.6250,79.0,283.0,7.5,-9999.0,'11133222,11111222,99999999' 
ADCP,ioos:station:wmo:42373:1,2008-03-02T23:08:00Z,27.3540,-94.6250,79.0,300.0,8.6,-9999.0,'11133222,11111222,99999999' 
ADCP,ioos:station:wmo:42373:1,2008-03-02T23:28:00Z,27.3540,-94.6250,79.0,300.0,8.7,-9999.0,'11133222,11111222,99999999' 
ADCP,ioos:station:wmo:42373:1,2008-03-02T23:48:00Z,27.3540,-94.6250,79.0,316.0,8.3,-9999.0,'11133222,11111222,99999999' 
ADCP,ioos:station:wmo:42373:1,2008-03-03T00:08:00Z,27.3540,-94.6250,79.0,305.0,11.6,-9999.0,'11111222,11111222,99999999' 
ADCP,ioos:station:wmo:42373:1,2008-03-03T00:28:00Z,27.3540,-94.6250,79.0,296.0,13.2,-9999.0,'11111222,11111222,99999999' 
ADCP,ioos:station:wmo:42373:1,2008-03-03T00:48:00Z,27.3540,-94.6250,79.0,295.0,13.2,-9999.0,'11111222,11111222,99999999' 
ADCP,ioos:station:wmo:42373:1,2008-03-03T01:08:00Z,27.3540,-94.6250,79.0,311.0,9.8,-9999.0,'11133222,11111222,99999999' 
ADCP,ioos:station:wmo:42373:1,2008-03-03T01:28:00Z,27.3540,-94.6250,79.0,301.0,9.6,-9999.0,'11133222,11111222,99999999' 
ADCP,ioos:station:wmo:42373:1,2008-03-03T01:48:00Z,27.3540,-94.6250,79.0,292.0,11.0,-9999.0,'11111222,11111222,99999999' 
ADCP,ioos:station:wmo:42373:1,2008-03-03T02:08:00Z,27.3540,-94.6250,79.0,293.0,10.6,-9999.0,'11111222,11111222,99999999' 
ADCP,ioos:station:wmo:42373:1,2008-03-03T02:28:00Z,27.3540,-94.6250,79.0,292.0,10.5,-9999.0,'11111222,11111222,99999999' 
ADCP,ioos:station:wmo:42373:1,2008-03-03T02:48:00Z,27.3540,-94.6250,79.0,291.0,9.1,-9999.0,'11133222,11111222,99999999' 
ADCP,ioos:station:wmo:42373:1,2008-03-03T03:08:00Z,27.3540,-94.6250,79.0,287.0,9.4,-9999.0,'11133222,11111222,99999999' 
ADCP,ioos:station:wmo:42373:1,2008-03-03T03:28:00Z,27.3540,-94.6250,79.0,287.0,8.9,-9999.0,'11133222,11111222,99999999' 
ADCP,ioos:station:wmo:42373:1,2008-03-03T03:48:00Z,27.3540,-94.6250,79.0,289.0,8.1,-9999.0,'11133222,11111222,99999999' 
ADCP,ioos:station:wmo:42373:1,2008-03-03T04:08:00Z,27.3540,-94.6250,79.0,280.0,8.9,-9999.0,'11133222,11111222,99999999' 
ADCP,ioos:station:wmo:42373:1,2008-03-03T04:28:00Z,27.3540,-94.6250,79.0,280.0,9.0,-9999.0,'11133222,11111222,99999999' 
ADCP,ioos:station:wmo:42373:1,2008-03-03T04:48:00Z,27.3540,-94.6250,79.0,276.0,10.3,-9999.0,'11111222,11111222,99999999' 
ADCP,ioos:station:wmo:42373:1,2008-03-03T05:08:00Z,27.3540,-94.6250,79.0,284.0,9.1,-9999.0,'11133222,11111222,99999999' 
ADCP,ioos:station:wmo:42373:1,2008-03-03T05:28:00Z,27.3540,-94.6250,79.0,282.0,9.5,-9999.0,'11133222,11111222,99999999' 
ADCP,ioos:station:wmo:42373:1,2008-03-03T05:48:00Z,27.3540,-94.6250,79.0,277.0,10.0,-9999.0,'11111222,11111222,99999999' 
ADCP,ioos:station:wmo:42373:1,2008-03-03T06:08:00Z,27.3540,-94.6250,79.0,275.0,10.4,-9999.0,'11111222,11111222,99999999' 
ADCP,ioos:station:wmo:42373:1,2008-03-03T06:28:00Z,27.3540,-94.6250,79.0,274.0,9.3,-9999.0,'11133222,11111222,99999999' 
ADCP,ioos:station:wmo:42373:1,2008-03-03T06:48:00Z,27.3540,-94.6250,79.0,282.0,8.0,-9999.0,'11133222,11111222,99999999' 
ADCP,ioos:station:wmo:42373:1,2008-03-03T07:08:00Z,27.3540,-94.6250,79.0,278.0,11.3,-9999.0,'11111222,11111222,99999999' 
ADCP,ioos:station:wmo:42373:1,2008-03-03T07:28:00Z,27.3540,-94.6250,79.0,288.0,10.4,-9999.0,'11111222,11111222,99999999' 
ADCP,ioos:station:wmo:42373:1,2008-03-03T07:48:00Z,27.3540,-94.6250,79.0,287.0,10.8,-9999.0,'11111222,11111222,99999999' 
ADCP,ioos:station:wmo:42373:1,2008-03-03T08:08:00Z,27.3540,-94.6250,79.0,283.0,11.2,-9999.0,'11111222,11111222,99999999' 
ADCP,ioos:station:wmo:42373:1,2008-03-03T08:28:00Z,27.3540,-94.6250,79.0,279.0,10.7,-9999.0,'11111222,11111222,99999999' 
ADCP,ioos:station:wmo:42373:1,2008-03-03T08:48:00Z,27.3540,-94.6250,79.0,280.0,9.7,-9999.0,'11133222,11111222,99999999' 
ADCP,ioos:station:wmo:42373:1,2008-03-03T09:08:00Z,27.3540,-94.6250,79.0,320.0,6.2,-9999.0,'11133222,11111222,99999999' 
ADCP,ioos:station:wmo:42373:1,2008-03-03T09:28:00Z,27.3540,-94.6250,79.0,2.0,6.0,-9999.0,'11133222,11111222,99999999' 
ADCP,ioos:station:wmo:42373:1,2008-03-03T09:48:00Z,27.3540,-94.6250,79.0,6.0,6.2,-9999.0,'11133222,11111222,99999999' 
ADCP,ioos:station:wmo:42373:1,2008-03-03T10:08:00Z,27.3540,-94.6250,79.0,351.0,5.8,-9999.0,'11133222,11111222,99999999' 
ADCP,ioos:station:wmo:42373:1,2008-03-03T10:28:00Z,27.3540,-94.6250,79.0,0.0,5.8,-9999.0,'11133222,11111222,99999999' 
ADCP,ioos:station:wmo:42373:1,2008-03-03T10:48:00Z,27.3540,-94.6250,79.0,332.0,5.3,-9999.0,'11133222,11111222,99999999' 
ADCP,ioos:station:wmo:42373:1,2008-03-03T11:08:00Z,27.3540,-94.6250,79.0,333.0,4.9,-9999.0,'11133222,11111222,99999999' 
ADCP,ioos:station:wmo:42373:1,2008-03-03T11:28:00Z,27.3540,-94.6250,79.0,358.0,2.7,-9999.0,'11133222,11111222,99999999' 
ADCP,ioos:station:wmo:42373:1,2008-03-03T11:48:00Z,27.3540,-94.6250,79.0,0.0,2.9,-9999.0,'11133222,11111222,99999999' 
ADCP,ioos:station:wmo:42373:1,2008-03-03T12:08:00Z,27.3540,-94.6250,79.0,303.0,4.0,-9999.0,'11133222,11111222,99999999' 
ADCP,ioos:station:wmo:42373:1,2008-03-03T12:28:00Z,27.3540,-94.6250,79.0,288.0,2.8,-9999.0,'11133222,11111222,99999999' 
ADCP,ioos:station:wmo:42373:1,2008-03-03T12:48:00Z,27.3540,-94.6250,79.0,281.0,6.5,-9999.0,'11133222,11111222,99999999' 
ADCP,ioos:station:wmo:42373:1,2008-03-03T13:08:00Z,27.3540,-94.6250,79.0,306.0,5.1,-9999.0,'11133222,11111222,99999999' 
ADCP,ioos:station:wmo:42373:1,2008-03-03T13:28:00Z,27.3540,-94.6250,79.0,284.0,5.4,-9999.0,'11133222,11111222,99999999' 
ADCP,ioos:station:wmo:42373:1,2008-03-03T13:48:00Z,27.3540,-94.6250,79.0,287.0,5.4,-9999.0,'11133222,11111222,99999999' 
ADCP,ioos:station:wmo:42373:1,2008-03-03T14:08:00Z,27.3540,-94.6250,79.0,268.0,5.5,-9999.0,'11133222,11111222,99999999' 
ADCP,ioos:station:wmo:42373:1,2008-03-03T14:28:00Z,27.3540,-94.6250,79.0,270.0,7.0,-9999.0,'11133222,11111222,99999999' 
ADCP,ioos:station:wmo:42373:1,2008-03-03T14:48:00Z,27.3540,-94.6250,79.0,282.0,6.3,-9999.0,'11133222,11111222,99999999' 
ADCP,ioos:station:wmo:42373:1,2008-03-03T15:08:00Z,27.3540,-94.6250,79.0,271.0,5.5,-9999.0,'11133222,11111222,99999999' 
ADCP,ioos:station:wmo:42373:1,2008-03-03T15:28:00Z,27.3540,-94.6250,79.0,260.0,7.7,-9999.0,'11133222,11111222,99999999' 
ADCP,ioos:station:wmo:42373:1,2008-03-03T15:48:00Z,27.3540,-94.6250,79.0,263.0,6.1,-9999.0,'11133222,11111222,99999999' 
ADCP,ioos:station:wmo:42373:1,2008-03-03T16:08:00Z,27.3540,-94.6250,79.0,254.0,10.8,-9999.0,'11111222,11111222,99999999' 
ADCP,ioos:station:wmo:42373:1,2008-03-03T16:28:00Z,27.3540,-94.6250,79.0,260.0,7.0,-9999.0,'11133222,11111222,99999999' 
ADCP,ioos:station:wmo:42373:1,2008-03-03T16:48:00Z,27.3540,-94.6250,79.0,257.0,7.6,-9999.0,'11133222,11111222,99999999' 
ADCP,ioos:station:wmo:42373:1,2008-03-03T17:08:00Z,27.3540,-94.6250,79.0,262.0,9.2,-9999.0,'11133222,11111222,99999999' 
ADCP,ioos:station:wmo:42373:1,2008-03-03T17:28:00Z,27.3540,-94.6250,79.0,264.0,10.0,-9999.0,'11111222,11111222,99999999' 